Year,Month,Day,Hour,Minute,Value (Times are PST for temperature in C)
2017,05,29,00,00,20.90
2017,05,29,00,01,20.80
2017,05,29,00,02,20.80
2017,05,29,00,03,20.80
2017,05,29,00,04,20.70
2017,05,29,00,05,20.70
2017,05,29,00,06,20.70
2017,05,29,00,07,20.70
2017,05,29,00,08,20.70
2017,05,29,00,09,20.70
2017,05,29,00,10,20.80
2017,05,29,00,11,20.80
2017,05,29,00,12,20.80
2017,05,29,00,13,20.80
2017,05,29,00,14,20.80
2017,05,29,00,15,20.90
2017,05,29,00,16,20.90
2017,05,29,00,17,20.90
2017,05,29,00,18,20.90
2017,05,29,00,19,21.00
2017,05,29,00,20,21.00
2017,05,29,00,21,21.10
2017,05,29,00,22,21.10
2017,05,29,00,23,21.10
2017,05,29,00,24,21.00
2017,05,29,00,25,21.00
2017,05,29,00,26,21.00
2017,05,29,00,27,20.90
2017,05,29,00,28,20.90
2017,05,29,00,29,20.90
2017,05,29,00,30,21.00
2017,05,29,00,31,21.00
2017,05,29,00,32,21.00
2017,05,29,00,33,21.00
2017,05,29,00,34,21.10
2017,05,29,00,35,21.10
2017,05,29,00,36,21.10
2017,05,29,00,37,21.10
2017,05,29,00,38,21.10
2017,05,29,00,39,21.10
2017,05,29,00,40,21.10
2017,05,29,00,41,21.10
2017,05,29,00,42,21.10
2017,05,29,00,43,21.10
2017,05,29,00,44,21.10
2017,05,29,00,45,21.10
2017,05,29,00,46,21.10
2017,05,29,00,47,21.10
2017,05,29,00,48,21.10
2017,05,29,00,49,21.10
2017,05,29,00,50,21.10
2017,05,29,00,51,21.10
2017,05,29,00,52,21.10
2017,05,29,00,53,21.20
2017,05,29,00,54,21.20
2017,05,29,00,55,21.20
2017,05,29,00,56,21.20
2017,05,29,00,57,21.20
2017,05,29,00,58,21.20
2017,05,29,00,59,21.20
2017,05,29,01,00,21.20
2017,05,29,01,01,21.20
2017,05,29,01,02,21.10
2017,05,29,01,03,21.10
2017,05,29,01,04,21.10
2017,05,29,01,05,21.00
2017,05,29,01,06,21.00
2017,05,29,01,07,21.00
2017,05,29,01,08,21.00
2017,05,29,01,09,21.00
2017,05,29,01,10,21.00
2017,05,29,01,11,21.00
2017,05,29,01,12,21.00
2017,05,29,01,13,21.00
2017,05,29,01,14,20.90
2017,05,29,01,15,20.90
2017,05,29,01,16,20.90
2017,05,29,01,17,20.90
2017,05,29,01,18,20.90
2017,05,29,01,19,20.90
2017,05,29,01,20,20.90
2017,05,29,01,21,20.90
2017,05,29,01,22,20.90
2017,05,29,01,23,20.90
2017,05,29,01,24,20.90
2017,05,29,01,25,21.00
2017,05,29,01,26,21.00
2017,05,29,01,27,21.00
2017,05,29,01,28,21.00
2017,05,29,01,29,21.00
2017,05,29,01,30,21.00
2017,05,29,01,31,21.10
2017,05,29,01,32,21.10
2017,05,29,01,33,21.10
2017,05,29,01,34,21.10
2017,05,29,01,35,21.10
2017,05,29,01,36,21.20
2017,05,29,01,37,21.20
2017,05,29,01,38,21.20
2017,05,29,01,39,21.20
2017,05,29,01,40,21.20
2017,05,29,01,41,21.20
2017,05,29,01,42,21.20
2017,05,29,01,43,21.20
2017,05,29,01,44,21.20
2017,05,29,01,45,21.20
2017,05,29,01,46,21.20
2017,05,29,01,47,21.20
2017,05,29,01,48,21.20
2017,05,29,01,49,21.20
2017,05,29,01,50,21.10
2017,05,29,01,51,21.10
2017,05,29,01,52,21.00
2017,05,29,01,53,21.00
2017,05,29,01,54,20.90
2017,05,29,01,55,20.90
2017,05,29,01,56,20.90
2017,05,29,01,57,20.80
2017,05,29,01,58,20.80
2017,05,29,01,59,20.80
2017,05,29,02,00,20.80
2017,05,29,02,01,20.70
2017,05,29,02,02,20.70
2017,05,29,02,03,20.60
2017,05,29,02,04,20.60
2017,05,29,02,05,20.60
2017,05,29,02,06,20.60
2017,05,29,02,07,20.70
2017,05,29,02,08,20.70
2017,05,29,02,09,20.70
2017,05,29,02,10,20.70
2017,05,29,02,11,20.70
2017,05,29,02,12,20.70
2017,05,29,02,13,20.70
2017,05,29,02,14,20.70
2017,05,29,02,15,20.70
2017,05,29,02,16,20.70
2017,05,29,02,17,20.70
2017,05,29,02,18,20.70
2017,05,29,02,19,20.70
2017,05,29,02,20,20.80
2017,05,29,02,21,20.80
2017,05,29,02,22,20.80
2017,05,29,02,23,20.90
2017,05,29,02,24,20.90
2017,05,29,02,25,20.90
2017,05,29,02,26,20.90
2017,05,29,02,27,20.90
2017,05,29,02,28,20.90
2017,05,29,02,29,20.90
2017,05,29,02,30,20.80
2017,05,29,02,31,20.80
2017,05,29,02,32,20.80
2017,05,29,02,33,20.80
2017,05,29,02,34,20.80
2017,05,29,02,35,20.70
2017,05,29,02,36,20.70
2017,05,29,02,37,20.60
2017,05,29,02,38,20.60
2017,05,29,02,39,20.50
2017,05,29,02,40,20.50
2017,05,29,02,41,20.40
2017,05,29,02,42,20.40
2017,05,29,02,43,20.40
2017,05,29,02,44,20.30
2017,05,29,02,45,20.30
2017,05,29,02,46,20.20
2017,05,29,02,47,20.20
2017,05,29,02,48,20.20
2017,05,29,02,49,20.10
2017,05,29,02,50,20.10
2017,05,29,02,51,20.10
2017,05,29,02,52,20.00
2017,05,29,02,53,20.00
2017,05,29,02,54,19.90
2017,05,29,02,55,19.90
2017,05,29,02,56,19.90
2017,05,29,02,57,19.90
2017,05,29,02,58,19.80
2017,05,29,02,59,19.80
2017,05,29,03,00,19.80
2017,05,29,03,01,19.70
2017,05,29,03,02,19.70
2017,05,29,03,03,19.70
2017,05,29,03,04,19.60
2017,05,29,03,05,19.60
2017,05,29,03,06,19.50
2017,05,29,03,07,19.50
2017,05,29,03,08,19.30
2017,05,29,03,09,19.20
2017,05,29,03,10,19.10
2017,05,29,03,11,18.90
2017,05,29,03,12,18.80
2017,05,29,03,13,18.60
2017,05,29,03,14,18.50
2017,05,29,03,15,18.40
2017,05,29,03,16,18.30
2017,05,29,03,17,18.20
2017,05,29,03,18,18.10
2017,05,29,03,19,18.10
2017,05,29,03,20,18.00
2017,05,29,03,21,18.00
2017,05,29,03,22,17.90
2017,05,29,03,23,17.90
2017,05,29,03,24,17.90
2017,05,29,03,25,17.90
2017,05,29,03,26,17.90
2017,05,29,03,27,17.90
2017,05,29,03,28,17.90
2017,05,29,03,29,17.90
2017,05,29,03,30,17.90
2017,05,29,03,31,18.00
2017,05,29,03,32,18.00
2017,05,29,03,33,18.00
2017,05,29,03,34,18.10
2017,05,29,03,35,18.10
2017,05,29,03,36,18.00
2017,05,29,03,37,18.10
2017,05,29,03,38,18.10
2017,05,29,03,39,18.10
2017,05,29,03,40,18.20
2017,05,29,03,41,18.20
2017,05,29,03,42,18.20
2017,05,29,03,43,18.20
2017,05,29,03,44,18.20
2017,05,29,03,45,18.20
2017,05,29,03,46,18.20
2017,05,29,03,47,18.20
2017,05,29,03,48,18.10
2017,05,29,03,49,18.10
2017,05,29,03,50,18.10
2017,05,29,03,51,18.10
2017,05,29,03,52,18.10
2017,05,29,03,53,18.10
2017,05,29,03,54,18.10
2017,05,29,03,55,18.10
2017,05,29,03,56,18.10
2017,05,29,03,57,18.10
2017,05,29,03,58,18.10
2017,05,29,03,59,18.10
2017,05,29,04,00,18.10
2017,05,29,04,01,18.10
2017,05,29,04,02,18.10
2017,05,29,04,03,18.00
2017,05,29,04,04,18.00
2017,05,29,04,05,18.00
2017,05,29,04,06,18.10
2017,05,29,04,07,18.10
2017,05,29,04,08,18.10
2017,05,29,04,09,18.10
2017,05,29,04,10,18.10
2017,05,29,04,11,18.20
2017,05,29,04,12,18.20
2017,05,29,04,13,18.20
2017,05,29,04,14,18.20
2017,05,29,04,15,18.20
2017,05,29,04,16,18.20
2017,05,29,04,17,18.20
2017,05,29,04,18,18.20
2017,05,29,04,19,18.20
2017,05,29,04,20,18.20
2017,05,29,04,21,18.10
2017,05,29,04,22,18.10
2017,05,29,04,23,18.10
2017,05,29,04,24,18.10
2017,05,29,04,25,18.00
2017,05,29,04,26,18.00
2017,05,29,04,27,18.00
2017,05,29,04,28,17.90
2017,05,29,04,29,17.90
2017,05,29,04,30,17.90
2017,05,29,04,31,17.90
2017,05,29,04,32,17.80
2017,05,29,04,33,17.80
2017,05,29,04,34,17.80
2017,05,29,04,35,17.70
2017,05,29,04,36,17.70
2017,05,29,04,37,17.60
2017,05,29,04,38,17.60
2017,05,29,04,39,17.50
2017,05,29,04,40,17.50
2017,05,29,04,41,17.40
2017,05,29,04,42,17.40
2017,05,29,04,43,17.30
2017,05,29,04,44,17.30
2017,05,29,04,45,17.30
2017,05,29,04,46,17.20
2017,05,29,04,47,17.20
2017,05,29,04,48,17.20
2017,05,29,04,49,17.20
2017,05,29,04,50,17.20
2017,05,29,04,51,17.10
2017,05,29,04,52,17.10
2017,05,29,04,53,17.10
2017,05,29,04,54,17.10
2017,05,29,04,55,17.10
2017,05,29,04,56,17.10
2017,05,29,04,57,17.10
2017,05,29,04,58,17.20
2017,05,29,04,59,17.20
2017,05,29,05,00,17.30
2017,05,29,05,01,17.30
2017,05,29,05,02,17.40
2017,05,29,05,03,17.40
2017,05,29,05,04,17.40
2017,05,29,05,05,17.40
2017,05,29,05,06,17.40
2017,05,29,05,07,17.50
2017,05,29,05,08,17.50
2017,05,29,05,09,17.60
2017,05,29,05,10,17.60
2017,05,29,05,11,17.60
2017,05,29,05,12,17.60
2017,05,29,05,13,17.60
2017,05,29,05,14,17.60
2017,05,29,05,15,17.60
2017,05,29,05,16,17.70
2017,05,29,05,17,17.70
2017,05,29,05,18,17.70
2017,05,29,05,19,17.70
2017,05,29,05,20,17.80
2017,05,29,05,21,17.90
2017,05,29,05,22,17.90
2017,05,29,05,23,17.90
2017,05,29,05,24,18.00
2017,05,29,05,25,18.00
2017,05,29,05,26,18.00
2017,05,29,05,27,18.00
2017,05,29,05,28,18.00
2017,05,29,05,29,18.00
2017,05,29,05,30,18.10
2017,05,29,05,31,18.10
2017,05,29,05,32,18.10
2017,05,29,05,33,18.10
2017,05,29,05,34,18.20
2017,05,29,05,35,18.20
2017,05,29,05,36,18.20
2017,05,29,05,37,18.30
2017,05,29,05,38,18.30
2017,05,29,05,39,18.30
2017,05,29,05,40,18.30
2017,05,29,05,41,18.40
2017,05,29,05,42,18.40
2017,05,29,05,43,18.40
2017,05,29,05,44,18.50
2017,05,29,05,45,18.50
2017,05,29,05,46,18.60
2017,05,29,05,47,18.60
2017,05,29,05,48,18.70
2017,05,29,05,49,18.70
2017,05,29,05,50,18.70
2017,05,29,05,51,18.80
2017,05,29,05,52,18.80
2017,05,29,05,53,18.80
2017,05,29,05,54,18.80
2017,05,29,05,55,18.80
2017,05,29,05,56,18.80
2017,05,29,05,57,18.80
2017,05,29,05,58,18.80
2017,05,29,05,59,18.80
2017,05,29,06,00,18.80
2017,05,29,06,01,18.80
2017,05,29,06,02,18.80
2017,05,29,06,03,18.80
2017,05,29,06,04,18.80
2017,05,29,06,05,18.80
2017,05,29,06,06,18.80
2017,05,29,06,07,18.80
2017,05,29,06,08,18.80
2017,05,29,06,09,18.80
2017,05,29,06,10,18.80
2017,05,29,06,11,18.80
2017,05,29,06,12,18.80
2017,05,29,06,13,18.90
2017,05,29,06,14,18.90
2017,05,29,06,15,18.90
2017,05,29,06,16,18.90
2017,05,29,06,17,18.90
2017,05,29,06,18,18.90
2017,05,29,06,19,18.90
2017,05,29,06,20,19.00
2017,05,29,06,21,19.00
2017,05,29,06,22,19.00
2017,05,29,06,23,19.00
2017,05,29,06,24,19.00
2017,05,29,06,25,19.00
2017,05,29,06,26,19.00
2017,05,29,06,27,19.10
2017,05,29,06,28,19.10
2017,05,29,06,29,19.10
2017,05,29,06,30,19.10
2017,05,29,06,31,19.10
2017,05,29,06,32,19.20
2017,05,29,06,33,19.20
2017,05,29,06,34,19.20
2017,05,29,06,35,19.20
2017,05,29,06,36,19.20
2017,05,29,06,37,19.20
2017,05,29,06,38,19.20
2017,05,29,06,39,19.20
2017,05,29,06,40,19.20
2017,05,29,06,41,19.20
2017,05,29,06,42,19.20
2017,05,29,06,43,19.20
2017,05,29,06,44,19.20
2017,05,29,06,45,19.20
2017,05,29,06,46,19.20
2017,05,29,06,47,19.20
2017,05,29,06,48,19.30
2017,05,29,06,49,19.30
2017,05,29,06,50,19.30
2017,05,29,06,51,19.40
2017,05,29,06,52,19.40
2017,05,29,06,53,19.40
2017,05,29,06,54,19.50
2017,05,29,06,55,19.50
2017,05,29,06,56,19.60
2017,05,29,06,57,19.60
2017,05,29,06,58,19.70
2017,05,29,06,59,19.70
2017,05,29,07,00,19.70
2017,05,29,07,01,19.70
2017,05,29,07,02,19.70
2017,05,29,07,03,19.70
2017,05,29,07,04,19.70
2017,05,29,07,05,19.70
2017,05,29,07,06,19.50
2017,05,29,07,07,19.40
2017,05,29,07,08,19.30
2017,05,29,07,09,19.20
2017,05,29,07,10,19.10
2017,05,29,07,11,19.10
2017,05,29,07,12,19.10
2017,05,29,07,13,19.00
2017,05,29,07,14,18.90
2017,05,29,07,15,18.90
2017,05,29,07,16,18.80
2017,05,29,07,17,18.80
2017,05,29,07,18,18.90
2017,05,29,07,19,18.90
2017,05,29,07,20,19.00
2017,05,29,07,21,19.00
2017,05,29,07,22,19.10
2017,05,29,07,23,19.20
2017,05,29,07,24,19.20
2017,05,29,07,25,19.20
2017,05,29,07,26,19.20
2017,05,29,07,27,19.20
2017,05,29,07,28,19.20
2017,05,29,07,29,19.10
2017,05,29,07,30,19.00
2017,05,29,07,31,18.90
2017,05,29,07,32,18.80
2017,05,29,07,33,18.80
2017,05,29,07,34,18.70
2017,05,29,07,35,18.70
2017,05,29,07,36,18.70
2017,05,29,07,37,18.70
2017,05,29,07,38,18.70
2017,05,29,07,39,18.70
2017,05,29,07,40,18.70
2017,05,29,07,41,18.70
2017,05,29,07,42,18.80
2017,05,29,07,43,18.80
2017,05,29,07,44,18.90
2017,05,29,07,45,18.90
2017,05,29,07,46,18.90
2017,05,29,07,47,19.00
2017,05,29,07,48,19.10
2017,05,29,07,49,19.10
2017,05,29,07,50,19.20
2017,05,29,07,51,19.20
2017,05,29,07,52,19.20
2017,05,29,07,53,19.30
2017,05,29,07,54,19.30
2017,05,29,07,55,19.40
2017,05,29,07,56,19.40
2017,05,29,07,57,19.50
2017,05,29,07,58,19.50
2017,05,29,07,59,19.50
2017,05,29,08,00,19.50
2017,05,29,08,01,19.60
2017,05,29,08,02,19.60
2017,05,29,08,03,19.50
2017,05,29,08,04,19.40
2017,05,29,08,05,19.30
2017,05,29,08,06,19.30
2017,05,29,08,07,19.20
2017,05,29,08,08,19.20
2017,05,29,08,09,19.20
2017,05,29,08,10,19.20
2017,05,29,08,11,19.20
2017,05,29,08,12,19.10
2017,05,29,08,13,19.20
2017,05,29,08,14,19.10
2017,05,29,08,15,19.10
2017,05,29,08,16,19.10
2017,05,29,08,17,19.00
2017,05,29,08,18,19.10
2017,05,29,08,19,19.10
2017,05,29,08,20,19.20
2017,05,29,08,21,19.20
2017,05,29,08,22,19.30
2017,05,29,08,23,19.30
2017,05,29,08,24,19.20
2017,05,29,08,25,19.30
2017,05,29,08,26,19.30
2017,05,29,08,27,19.40
2017,05,29,08,28,19.40
2017,05,29,08,29,19.40
2017,05,29,08,30,19.40
2017,05,29,08,31,19.40
2017,05,29,08,32,19.30
2017,05,29,08,33,19.30
2017,05,29,08,34,19.30
2017,05,29,08,35,19.20
2017,05,29,08,36,19.30
2017,05,29,08,37,19.30
2017,05,29,08,38,19.40
2017,05,29,08,39,19.50
2017,05,29,08,40,19.60
2017,05,29,08,41,19.60
2017,05,29,08,42,19.60
2017,05,29,08,43,19.60
2017,05,29,08,44,19.60
2017,05,29,08,45,19.60
2017,05,29,08,46,19.70
2017,05,29,08,47,19.70
2017,05,29,08,48,19.70
2017,05,29,08,49,19.60
2017,05,29,08,50,19.70
2017,05,29,08,51,19.70
2017,05,29,08,52,19.70
2017,05,29,08,53,19.80
2017,05,29,08,54,19.80
2017,05,29,08,55,19.70
2017,05,29,08,56,19.70
2017,05,29,08,57,19.60
2017,05,29,08,58,19.60
2017,05,29,08,59,19.60
2017,05,29,09,00,19.60
2017,05,29,09,01,19.60
2017,05,29,09,02,19.60
2017,05,29,09,03,19.70
2017,05,29,09,04,19.80
2017,05,29,09,05,19.90
2017,05,29,09,06,19.80
2017,05,29,09,07,19.80
2017,05,29,09,08,19.80
2017,05,29,09,09,19.80
2017,05,29,09,10,19.80
2017,05,29,09,11,19.80
2017,05,29,09,12,19.90
2017,05,29,09,13,20.00
2017,05,29,09,14,20.00
2017,05,29,09,15,19.90
2017,05,29,09,16,19.90
2017,05,29,09,17,19.90
2017,05,29,09,18,19.80
2017,05,29,09,19,19.70
2017,05,29,09,20,19.70
2017,05,29,09,21,19.70
2017,05,29,09,22,19.70
2017,05,29,09,23,19.70
2017,05,29,09,24,19.70
2017,05,29,09,25,19.70
2017,05,29,09,26,19.80
2017,05,29,09,27,19.90
2017,05,29,09,28,20.10
2017,05,29,09,29,20.20
2017,05,29,09,30,20.30
2017,05,29,09,31,20.30
2017,05,29,09,32,20.30
2017,05,29,09,33,20.40
2017,05,29,09,34,20.50
2017,05,29,09,35,20.50
2017,05,29,09,36,20.40
2017,05,29,09,37,20.40
2017,05,29,09,38,20.50
2017,05,29,09,39,20.60
2017,05,29,09,40,20.60
2017,05,29,09,41,20.70
2017,05,29,09,42,20.80
2017,05,29,09,43,20.80
2017,05,29,09,44,20.80
2017,05,29,09,45,20.80
2017,05,29,09,46,20.80
2017,05,29,09,47,20.80
2017,05,29,09,48,20.80
2017,05,29,09,49,20.80
2017,05,29,09,50,20.80
2017,05,29,09,51,20.80
2017,05,29,09,52,20.80
2017,05,29,09,53,20.70
2017,05,29,09,54,20.80
2017,05,29,09,55,20.80
2017,05,29,09,56,20.80
2017,05,29,09,57,20.70
2017,05,29,09,58,20.70
2017,05,29,09,59,20.80
2017,05,29,10,00,20.80
2017,05,29,10,01,20.90
2017,05,29,10,02,21.00
2017,05,29,10,03,21.00
2017,05,29,10,04,21.10
2017,05,29,10,05,21.20
2017,05,29,10,06,21.30
2017,05,29,10,07,21.40
2017,05,29,10,08,21.60
2017,05,29,10,09,21.60
2017,05,29,10,10,21.70
2017,05,29,10,11,21.80
2017,05,29,10,12,21.80
2017,05,29,10,13,21.80
2017,05,29,10,14,21.80
2017,05,29,10,15,21.80
2017,05,29,10,16,21.80
2017,05,29,10,17,21.80
2017,05,29,10,18,21.80
2017,05,29,10,19,21.90
2017,05,29,10,20,21.90
2017,05,29,10,21,21.90
2017,05,29,10,22,21.90
2017,05,29,10,23,21.90
2017,05,29,10,24,22.00
2017,05,29,10,25,22.10
2017,05,29,10,26,22.20
2017,05,29,10,27,22.30
2017,05,29,10,28,22.30
2017,05,29,10,29,22.40
2017,05,29,10,30,22.30
2017,05,29,10,31,22.30
2017,05,29,10,32,22.20
2017,05,29,10,33,22.10
2017,05,29,10,34,22.00
2017,05,29,10,35,22.00
2017,05,29,10,36,21.90
2017,05,29,10,37,21.90
2017,05,29,10,38,21.90
2017,05,29,10,39,22.00
2017,05,29,10,40,22.10
2017,05,29,10,41,22.20
2017,05,29,10,42,22.20
2017,05,29,10,43,22.30
2017,05,29,10,44,22.30
2017,05,29,10,45,22.30
2017,05,29,10,46,22.30
2017,05,29,10,47,22.30
2017,05,29,10,48,22.30
2017,05,29,10,49,22.30
2017,05,29,10,50,22.30
2017,05,29,10,51,22.30
2017,05,29,10,52,22.30
2017,05,29,10,53,22.20
2017,05,29,10,54,22.30
2017,05,29,10,55,22.30
2017,05,29,10,56,22.20
2017,05,29,10,57,22.20
2017,05,29,10,58,22.20
2017,05,29,10,59,22.30
2017,05,29,11,00,22.20
2017,05,29,11,01,22.20
2017,05,29,11,02,22.30
2017,05,29,11,03,22.30
2017,05,29,11,04,22.30
2017,05,29,11,05,22.30
2017,05,29,11,06,22.30
2017,05,29,11,07,22.30
2017,05,29,11,08,22.40
2017,05,29,11,09,22.40
2017,05,29,11,10,22.40
2017,05,29,11,11,22.40
2017,05,29,11,12,22.40
2017,05,29,11,13,22.50
2017,05,29,11,14,22.60
2017,05,29,11,15,22.50
2017,05,29,11,16,22.50
2017,05,29,11,17,22.50
2017,05,29,11,18,22.40
2017,05,29,11,19,22.40
2017,05,29,11,20,22.30
2017,05,29,11,21,22.30
2017,05,29,11,22,22.30
2017,05,29,11,23,22.30
2017,05,29,11,24,22.20
2017,05,29,11,25,22.20
2017,05,29,11,26,22.20
2017,05,29,11,27,22.20
2017,05,29,11,28,22.20
2017,05,29,11,29,22.30
2017,05,29,11,30,22.40
2017,05,29,11,31,22.60
2017,05,29,11,32,22.70
2017,05,29,11,33,22.80
2017,05,29,11,34,22.90
2017,05,29,11,35,23.00
2017,05,29,11,36,23.20
2017,05,29,11,37,23.20
2017,05,29,11,38,23.30
2017,05,29,11,39,23.30
2017,05,29,11,40,23.20
2017,05,29,11,41,23.10
2017,05,29,11,42,23.00
2017,05,29,11,43,22.90
2017,05,29,11,44,22.80
2017,05,29,11,45,22.80
2017,05,29,11,46,22.90
2017,05,29,11,47,22.90
2017,05,29,11,48,23.00
2017,05,29,11,49,23.10
2017,05,29,11,50,23.20
2017,05,29,11,51,23.20
2017,05,29,11,52,23.30
2017,05,29,11,53,23.30
2017,05,29,11,54,23.30
2017,05,29,11,55,23.40
2017,05,29,11,56,23.40
2017,05,29,11,57,23.30
2017,05,29,11,58,23.20
2017,05,29,11,59,23.10
2017,05,29,12,00,23.00
2017,05,29,12,01,23.00
2017,05,29,12,02,22.90
2017,05,29,12,03,22.90
2017,05,29,12,04,22.90
2017,05,29,12,05,22.90
2017,05,29,12,06,22.90
2017,05,29,12,07,22.90
2017,05,29,12,08,23.00
2017,05,29,12,09,23.00
2017,05,29,12,10,23.10
2017,05,29,12,11,23.20
2017,05,29,12,12,23.10
2017,05,29,12,13,23.10
2017,05,29,12,14,23.10
2017,05,29,12,15,23.00
2017,05,29,12,16,22.90
2017,05,29,12,17,22.90
2017,05,29,12,18,22.90
2017,05,29,12,19,23.00
2017,05,29,12,20,23.20
2017,05,29,12,21,23.20
2017,05,29,12,22,23.30
2017,05,29,12,23,23.30
2017,05,29,12,24,23.30
2017,05,29,12,25,23.30
2017,05,29,12,26,23.30
2017,05,29,12,27,23.30
2017,05,29,12,28,23.20
2017,05,29,12,29,23.10
2017,05,29,12,30,23.00
2017,05,29,12,31,23.00
2017,05,29,12,32,23.00
2017,05,29,12,33,23.00
2017,05,29,12,34,23.10
2017,05,29,12,35,23.10
2017,05,29,12,36,23.10
2017,05,29,12,37,23.00
2017,05,29,12,38,23.00
2017,05,29,12,39,23.00
2017,05,29,12,40,23.00
2017,05,29,12,41,23.10
2017,05,29,12,42,23.10
2017,05,29,12,43,23.20
2017,05,29,12,44,23.30
2017,05,29,12,45,23.40
2017,05,29,12,46,23.50
2017,05,29,12,47,23.60
2017,05,29,12,48,23.60
2017,05,29,12,49,23.70
2017,05,29,12,50,23.60
2017,05,29,12,51,23.60
2017,05,29,12,52,23.50
2017,05,29,12,53,23.40
2017,05,29,12,54,23.30
2017,05,29,12,55,23.20
2017,05,29,12,56,23.20
2017,05,29,12,57,23.20
2017,05,29,12,58,23.30
2017,05,29,12,59,23.30
2017,05,29,13,00,23.40
2017,05,29,13,01,23.50
2017,05,29,13,02,23.70
2017,05,29,13,03,23.80
2017,05,29,13,04,23.80
2017,05,29,13,05,23.80
2017,05,29,13,06,23.80
2017,05,29,13,07,23.80
2017,05,29,13,08,23.80
2017,05,29,13,09,23.70
2017,05,29,13,10,23.60
2017,05,29,13,11,23.60
2017,05,29,13,12,23.60
2017,05,29,13,13,23.60
2017,05,29,13,14,23.60
2017,05,29,13,15,23.60
2017,05,29,13,16,23.70
2017,05,29,13,17,23.60
2017,05,29,13,18,23.60
2017,05,29,13,19,23.60
2017,05,29,13,20,23.70
2017,05,29,13,21,23.70
2017,05,29,13,22,23.60
2017,05,29,13,23,23.60
2017,05,29,13,24,23.60
2017,05,29,13,25,23.50
2017,05,29,13,26,23.50
2017,05,29,13,27,23.50
2017,05,29,13,28,23.40
2017,05,29,13,29,23.40
2017,05,29,13,30,23.30
2017,05,29,13,31,23.30
2017,05,29,13,32,23.30
2017,05,29,13,33,23.30
2017,05,29,13,34,23.30
2017,05,29,13,35,23.40
2017,05,29,13,36,23.40
2017,05,29,13,37,23.50
2017,05,29,13,38,23.60
2017,05,29,13,39,23.60
2017,05,29,13,40,23.60
2017,05,29,13,41,23.70
2017,05,29,13,42,23.80
2017,05,29,13,43,23.80
2017,05,29,13,44,23.80
2017,05,29,13,45,23.90
2017,05,29,13,46,23.90
2017,05,29,13,47,24.10
2017,05,29,13,48,24.20
2017,05,29,13,49,24.30
2017,05,29,13,50,24.30
2017,05,29,13,51,24.30
2017,05,29,13,52,24.20
2017,05,29,13,53,24.20
2017,05,29,13,54,24.20
2017,05,29,13,55,24.00
2017,05,29,13,56,23.90
2017,05,29,13,57,23.90
2017,05,29,13,58,23.90
2017,05,29,13,59,23.90
2017,05,29,14,00,24.00
2017,05,29,14,01,24.00
2017,05,29,14,02,24.10
2017,05,29,14,03,24.10
2017,05,29,14,04,24.10
2017,05,29,14,05,24.10
2017,05,29,14,06,24.10
2017,05,29,14,07,24.10
2017,05,29,14,08,24.10
2017,05,29,14,09,24.20
2017,05,29,14,10,24.30
2017,05,29,14,11,24.30
2017,05,29,14,12,24.40
2017,05,29,14,13,24.40
2017,05,29,14,14,24.40
2017,05,29,14,15,24.50
2017,05,29,14,16,24.50
2017,05,29,14,17,24.60
2017,05,29,14,18,24.60
2017,05,29,14,19,24.60
2017,05,29,14,20,24.60
2017,05,29,14,21,24.70
2017,05,29,14,22,24.70
2017,05,29,14,23,24.80
2017,05,29,14,24,24.80
2017,05,29,14,25,24.90
2017,05,29,14,26,24.90
2017,05,29,14,27,24.90
2017,05,29,14,28,25.00
2017,05,29,14,29,25.10
2017,05,29,14,30,25.20
2017,05,29,14,31,25.10
2017,05,29,14,32,24.90
2017,05,29,14,33,24.90
2017,05,29,14,34,24.90
2017,05,29,14,35,25.00
2017,05,29,14,36,25.00
2017,05,29,14,37,25.10
2017,05,29,14,38,25.20
2017,05,29,14,39,25.20
2017,05,29,14,40,25.20
2017,05,29,14,41,25.20
2017,05,29,14,42,25.30
2017,05,29,14,43,25.50
2017,05,29,14,44,25.60
2017,05,29,14,45,25.60
2017,05,29,14,46,25.60
2017,05,29,14,47,25.70
2017,05,29,14,48,25.70
2017,05,29,14,49,25.70
2017,05,29,14,50,25.70
2017,05,29,14,51,25.70
2017,05,29,14,52,25.80
2017,05,29,14,53,25.80
2017,05,29,14,54,25.80
2017,05,29,14,55,25.80
2017,05,29,14,56,25.80
2017,05,29,14,57,25.80
2017,05,29,14,58,25.80
2017,05,29,14,59,25.80
2017,05,29,15,00,25.90
2017,05,29,15,01,25.80
2017,05,29,15,02,25.90
2017,05,29,15,03,25.90
2017,05,29,15,04,25.90
2017,05,29,15,05,25.90
2017,05,29,15,06,25.90
2017,05,29,15,07,25.90
2017,05,29,15,08,25.90
2017,05,29,15,09,25.90
2017,05,29,15,10,25.80
2017,05,29,15,11,25.70
2017,05,29,15,12,25.70
2017,05,29,15,13,25.60
2017,05,29,15,14,25.60
2017,05,29,15,15,25.50
2017,05,29,15,16,25.60
2017,05,29,15,17,25.70
2017,05,29,15,18,25.70
2017,05,29,15,19,25.80
2017,05,29,15,20,25.90
2017,05,29,15,21,25.90
2017,05,29,15,22,26.00
2017,05,29,15,23,26.10
2017,05,29,15,24,26.10
2017,05,29,15,25,26.10
2017,05,29,15,26,26.20
2017,05,29,15,27,26.00
2017,05,29,15,28,26.00
2017,05,29,15,29,26.00
2017,05,29,15,30,26.00
2017,05,29,15,31,26.00
2017,05,29,15,32,25.90
2017,05,29,15,33,25.90
2017,05,29,15,34,25.90
2017,05,29,15,35,25.80
2017,05,29,15,36,25.90
2017,05,29,15,37,25.90
2017,05,29,15,38,25.90
2017,05,29,15,39,25.90
2017,05,29,15,40,25.90
2017,05,29,15,41,25.90
2017,05,29,15,42,25.90
2017,05,29,15,43,25.90
2017,05,29,15,44,25.80
2017,05,29,15,45,25.70
2017,05,29,15,46,25.70
2017,05,29,15,47,25.70
2017,05,29,15,48,25.80
2017,05,29,15,49,25.80
2017,05,29,15,50,25.70
2017,05,29,15,51,25.80
2017,05,29,15,52,25.80
2017,05,29,15,53,25.80
2017,05,29,15,54,25.80
2017,05,29,15,55,25.70
2017,05,29,15,56,25.60
2017,05,29,15,57,25.60
2017,05,29,15,58,25.50
2017,05,29,15,59,25.50
2017,05,29,16,00,25.40
2017,05,29,16,01,25.50
2017,05,29,16,02,25.50
2017,05,29,16,03,25.50
2017,05,29,16,04,25.60
2017,05,29,16,05,25.60
2017,05,29,16,06,25.60
2017,05,29,16,07,25.60
2017,05,29,16,08,25.60
2017,05,29,16,09,25.60
2017,05,29,16,10,25.70
2017,05,29,16,11,25.70
2017,05,29,16,12,25.70
2017,05,29,16,13,25.70
2017,05,29,16,14,25.70
2017,05,29,16,15,25.80
2017,05,29,16,16,25.90
2017,05,29,16,17,25.90
2017,05,29,16,18,26.00
2017,05,29,16,19,26.10
2017,05,29,16,20,26.20
2017,05,29,16,21,26.20
2017,05,29,16,22,26.20
2017,05,29,16,23,26.10
2017,05,29,16,24,26.10
2017,05,29,16,25,26.10
2017,05,29,16,26,26.10
2017,05,29,16,27,26.20
2017,05,29,16,28,26.20
2017,05,29,16,29,26.30
2017,05,29,16,30,26.30
2017,05,29,16,31,26.20
2017,05,29,16,32,26.20
2017,05,29,16,33,26.20
2017,05,29,16,34,26.30
2017,05,29,16,35,26.30
2017,05,29,16,36,26.30
2017,05,29,16,37,26.40
2017,05,29,16,38,26.40
2017,05,29,16,39,26.40
2017,05,29,16,40,26.50
2017,05,29,16,41,26.60
2017,05,29,16,42,26.60
2017,05,29,16,43,26.60
2017,05,29,16,44,26.70
2017,05,29,16,45,26.70
2017,05,29,16,46,26.60
2017,05,29,16,47,26.60
2017,05,29,16,48,26.60
2017,05,29,16,49,26.70
2017,05,29,16,50,26.70
2017,05,29,16,51,26.70
2017,05,29,16,52,26.70
2017,05,29,16,53,26.70
2017,05,29,16,54,26.60
2017,05,29,16,55,26.50
2017,05,29,16,56,26.50
2017,05,29,16,57,26.50
2017,05,29,16,58,26.50
2017,05,29,16,59,26.60
2017,05,29,17,00,26.60
2017,05,29,17,01,26.60
2017,05,29,17,02,26.60
2017,05,29,17,03,26.60
2017,05,29,17,04,26.60
2017,05,29,17,05,26.60
2017,05,29,17,06,26.60
2017,05,29,17,07,26.50
2017,05,29,17,08,26.40
2017,05,29,17,09,26.40
2017,05,29,17,10,26.30
2017,05,29,17,11,26.20
2017,05,29,17,12,26.20
2017,05,29,17,13,26.10
2017,05,29,17,14,26.10
2017,05,29,17,15,26.10
2017,05,29,17,16,26.10
2017,05,29,17,17,26.10
2017,05,29,17,18,26.20
2017,05,29,17,19,26.20